Cloud_Cover
92 92 92 92 92 92 92 92 92 92 92 92 92 92 92 100 100 92 92 92 92 92 92 92 92 92 92 92 92 92 92 88 80 80 68 56 44 20 12 12 20 20 20 12 8 8 8 0 0 0 0 0 0 0 0 0 0 0 0 0 0 0 0 0 0 0 0 0 0 0 0 0 0 0 0 0 0 8 0 0 8 0 0 0 0 0 0 0 0 0 0 0 0 0 0 0 0 0 0 0 0 0 0
92 92 92 92 92 92 92 92 92 92 92 92 92 92 92 100 100 92 92 92 92 92 92 92 92 92 92 92 92 92 92 88 80 80 68 56 48 24 20 20 20 20 12 12 8 8 8 0 0 0 0 0 0 0 0 0 0 0 0 0 0 0 0 0 0 0 0 0 0 0 0 0 0 0 0 0 8 8 8 8 0 0 0 0 0 0 0 0 0 0 0 0 0 0 0 0 0 0 0 0 0 0 0
92 92 92 92 92 92 92 92 92 92 92 92 100 100 92 92 92 92 92 92 92 92 92 92 92 92 88 88 88 92 92 88 80 80 68 48 48 32 24 20 20 20 20 12 12 12 8 0 0 0 0 0 0 0 0 0 0 0 0 0 0 0 0 0 0 0 0 0 0 0 0 0 0 0 0 0 8 8 8 8 0 0 0 0 0 0 0 0 0 0 0 0 0 0 0 0 0 0 0 0 0 0 0
92 92 92 92 88 92 92 92 92 92 92 92 92 92 92 92 92 92 92 92 92 92 92 92 92 92 88 88 88 92 92 88 80 76 56 36 44 32 24 24 20 20 20 20 12 12 8 0 0 0 0 0 0 0 0 0 0 0 0 0 0 0 0 0 0 0 0 0 0 0 0 0 0 0 0 8 8 8 8 8 0 0 0 0 0 0 0 0 0 0 0 0 0 0 0 0 0 0 0 0 0 0 0
92 92 92 92 88 88 92 92 88 92 92 92 92 92 92 92 92 92 92 92 92 92 92 92 92 80 80 88 92 92 92 88 80 64 44 32 24 24 24 24 20 20 20 20 12 8 8 0 0 0 0 0 0 0 0 0 0 0 0 0 0 0 0 0 0 0 0 0 0 0 0 0 0 0 0 8 8 8 8 8 0 0 0 0 0 0 0 0 0 0 0 0 0 0 0 0 0 0 0 0 0 0 0
92 92 92 92 88 92 92 92 88 88 92 92 92 92 92 92 92 92 92 92 92 92 92 92 92 88 88 88 92 92 92 88 80 68 48 32 20 20 24 20 20 24 24 24 12 8 8 0 0 0 0 0 0 0 0 0 0 0 0 0 0 0 0 0 0 0 0 0 0 0 0 0 0 0 0 0 8 8 0 0 0 0 0 0 0 0 0 0 0 0 0 0 0 0 0 0 0 0 0 0 0 0 0
92 92 92 92 88 92 92 92 92 88 92 92 92 92 92 92 92 92 92 92 92 92 92 92 92 92 92 92 92 92 88 80 80 68 48 32 20 12 12 20 24 32 36 32 12 8 0 0 0 0 0 0 0 0 0 0 0 0 0 0 0 0 0 0 0 0 0 0 0 0 0 0 0 0 0 0 8 8 0 0 0 0 0 0 0 0 0 0 0 0 0 0 0 0 0 0 0 0 0 0 0 0 0
92 92 92 92 88 92 92 92 92 92 92 92 92 92 92 92 92 92 92 92 92 92 92 92 92 88 88 92 92 92 88 80 76 76 64 36 24 12 20 24 36 44 44 32 12 8 0 0 0 0 0 0 0 0 0 0 0 0 0 0 0 0 0 0 0 0 0 0 0 0 0 0 0 0 8 8 8 0 0 0 0 0 0 0 0 0 0 0 0 0 0 0 0 0 0 0 0 0 0 0 0 0 0
92 92 92 92 88 92 92 92 92 92 100 92 92 92 92 92 92 92 92 92 92 92 92 92 92 80 80 88 92 92 88 88 80 80 68 48 32 20 20 32 64 56 44 32 12 8 8 0 0 0 0 0 0 0 0 0 0 0 0 0 8 0 0 0 0 0 0 0 0 0 0 0 0 0 8 8 8 0 0 0 0 0 0 0 0 0 0 0 0 0 0 0 0 0 0 0 0 0 0 0 0 0 0
92 92 92 88 88 92 92 100 100 92 92 100 100 92 92 92 92 92 92 92 92 92 92 92 92 80 80 88 92 88 88 88 88 88 76 56 44 24 36 56 68 56 36 24 12 8 0 0 0 0 0 0 0 0 0 0 0 0 0 0 0 0 0 0 0 0 0 0 0 0 0 0 0 0 0 0 0 0 0 0 0 0 0 0 0 0 0 0 0 0 0 0 0 0 0 0 0 0 0 0 0 0 0
92 92 88 88 88 88 92 92 92 92 92 92 92 92 92 92 92 92 92 92 92 92 92 92 92 80 80 88 88 88 88 88 88 88 76 64 48 36 56 76 68 44 32 20 12 8 0 0 0 8 0 0 0 0 0 0 0 0 0 0 0 0 0 0 0 0 0 0 0 0 0 0 0 0 0 0 0 0 0 0 0 0 0 0 0 0 0 0 0 0 0 0 0 0 0 0 0 0 0 0 0 0 0
92 92 92 92 92 92 92 92 92 92 92 92 92 92 92 92 92 92 92 92 92 92 92 92 92 80 80 88 88 88 88 88 88 88 76 68 64 68 76 76 68 36 24 20 12 8 0 0 8 8 0 0 0 0 0 0 0 0 0 0 0 0 0 0 0 0 0 0 0 0 0 0 0 0 0 0 0 0 0 0 0 0 0 0 0 0 0 0 0 0 0 0 0 0 0 0 0 0 0 0 0 0 0
92 92 92 92 92 92 92 92 92 92 92 92 92 92 92 92 92 92 92 92 92 92 92 88 64 80 88 88 92 92 92 92 88 88 80 80 80 88 80 68 56 36 24 20 12 8 8 8 8 8 0 0 0 0 0 0 0 0 0 0 0 0 0 0 0 0 0 0 0 0 0 0 0 0 0 0 0 0 0 0 0 0 0 0 0 0 0 0 0 0 0 0 0 0 0 0 0 0 0 0 0 0 0
92 92 92 92 92 92 92 92 92 92 92 92 92 92 92 92 92 92 92 92 92 92 88 68 48 80 92 92 92 92 92 92 80 80 80 88 92 92 80 64 48 36 32 24 12 8 8 0 8 0 0 0 0 0 0 0 0 0 0 0 0 0 0 0 0 0 0 0 0 0 0 0 0 0 0 0 0 0 0 0 0 0 0 0 0 0 0 0 0 0 0 0 0 0 0 0 0 0 0 0 0 0 0
92 92 92 88 92 92 92 92 92 92 92 92 92 92 92 92 92 92 92 92 92 88 80 68 64 80 92 92 92 92 92 92 80 80 88 92 92 92 88 68 56 36 24 20 12 8 8 8 0 0 0 0 0 0 0 0 0 0 0 0 0 0 0 0 0 0 0 0 0 0 0 0 0 0 0 0 0 0 0 0 0 0 0 0 0 0 0 0 0 0 0 0 0 0 0 0 0 0 0 0 0 0 0
92 92 92 92 92 92 92 92 92 92 92 92 92 92 92 92 92 92 92 92 92 80 68 68 76 88 92 92 92 92 92 92 88 88 92 92 92 92 88 76 56 36 24 20 12 12 12 8 0 0 0 0 0 0 0 0 0 0 0 0 0 0 0 0 0 0 0 0 0 0 0 0 0 0 0 0 0 0 0 0 0 0 0 0 0 0 0 0 0 0 0 0 0 0 0 0 0 0 0 0 0 0 0
92 92 92 92 92 92 92 92 92 92 92 92 92 92 92 92 92 92 92 92 92 80 80 88 88 92 92 92 92 92 92 92 88 92 92 92 92 92 88 76 64 36 24 20 12 12 8 0 0 0 0 0 0 0 0 0 0 0 0 0 0 0 0 0 0 0 0 0 0 0 0 0 0 0 0 0 0 0 0 0 0 0 0 0 0 0 0 0 0 0 0 0 0 0 0 0 0 0 0 0 0 0 0
92 92 92 92 92 92 92 92 92 92 92 92 92 92 92 92 92 92 92 92 92 88 88 92 92 92 92 92 92 92 92 88 92 92 92 92 92 92 92 80 68 44 24 20 20 8 0 0 0 0 0 0 0 0 0 0 0 0 0 0 0 0 0 0 0 0 0 0 0 0 0 0 0 0 0 0 0 0 0 0 0 0 0 0 0 0 0 0 0 0 0 0 0 0 0 0 0 0 0 0 0 0 0
92 92 92 92 92 92 92 92 92 92 92 92 92 92 92 92 88 88 92 92 92 92 92 92 92 92 92 92 92 88 88 92 92 92 92 92 92 92 92 88 76 56 36 24 20 8 0 0 0 0 0 0 0 0 0 0 0 0 0 0 0 0 0 0 0 0 0 0 0 0 0 0 0 0 0 0 0 0 0 0 0 0 0 0 0 0 0 0 0 0 0 0 0 0 0 0 0 0 0 0 0 0 0
92 92 92 92 92 92 92 92 92 92 92 92 92 92 92 92 88 92 92 92 92 92 92 92 92 92 92 92 92 88 92 92 92 92 92 92 92 92 92 88 64 48 36 20 12 0 0 0 0 0 0 0 0 0 0 0 0 0 0 0 0 0 0 0 0 0 0 0 0 0 0 0 0 0 0 0 0 0 0 0 0 0 0 0 0 0 0 0 0 0 0 0 0 0 0 0 0 0 0 0 0 0 0
92 92 92 92 92 92 92 92 92 92 100 92 92 88 80 80 64 88 92 92 92 92 92 92 92 92 92 92 92 92 92 92 88 88 92 92 92 92 88 68 48 44 24 12 0 0 0 0 0 0 0 0 0 0 0 0 0 0 0 0 0 0 0 0 0 0 0 0 0 0 0 0 0 0 0 0 0 0 0 0 0 0 0 0 0 0 0 0 0 0 0 0 0 0 0 0 0 0 0 0 0 0 0
92 88 92 92 92 88 92 92 100 100 100 92 92 80 68 48 36 80 92 92 92 92 92 92 92 92 92 92 92 92 92 92 88 92 92 92 92 92 76 56 44 32 20 8 0 0 0 0 0 0 0 0 8 0 0 0 0 0 0 0 0 0 0 0 0 0 0 0 0 0 0 0 0 0 0 0 0 0 0 0 0 0 0 0 0 0 0 0 0 0 0 0 0 0 0 0 0 0 0 0 0 0 8
92 92 92 92 92 92 92 92 100 100 100 92 92 80 64 48 48 88 92 92 92 92 92 92 92 92 92 88 88 80 80 80 92 92 92 92 92 92 76 48 44 36 20 0 0 0 0 0 0 0 0 8 8 8 0 0 0 0 0 0 0 0 0 0 0 0 0 0 0 0 0 0 0 0 0 0 0 0 0 0 0 0 0 0 0 0 0 0 0 0 0 0 0 0 0 0 0 0 0 0 0 8 8
92 92 92 92 92 92 92 100 100 100 100 92 92 68 48 48 80 92 92 92 92 92 92 92 92 92 92 88 80 80 80 88 92 92 92 92 92 92 76 56 48 32 12 0 0 0 0 0 0 0 8 8 8 8 8 8 0 0 0 0 0 0 0 0 0 0 0 0 0 0 0 0 0 0 0 0 0 0 0 0 0 0 0 0 0 0 0 0 0 0 0 0 0 0 0 0 0 0 0 8 8 8 8
92 92 92 92 80 92 92 100 100 100 100 92 92 64 56 68 80 92 92 92 92 92 92 92 92 92 92 88 80 88 88 88 92 92 92 92 92 88 76 56 36 20 8 0 0 0 0 8 8 8 8 8 8 8 8 8 8 0 0 0 8 0 0 0 0 0 0 0 0 0 0 0 0 0 0 0 0 0 0 0 0 0 0 0 0 0 0 0 0 0 0 0 0 0 0 0 8 8 8 8 8 8 8
92 92 92 92 88 92 100 100 100 100 100 92 92 80 80 80 88 92 92 92 92 92 92 92 92 92 88 88 88 88 88 92 92 92 92 92 92 88 68 44 24 12 8 0 0 0 8 8 8 8 8 8 8 8 8 8 8 8 0 0 8 0 8 8 8 0 0 0 0 0 0 0 0 0 0 0 0 0 0 0 0 0 0 0 0 0 0 0 0 0 0 0 0 8 8 8 8 8 8 8 8 8 8
92 92 92 92 80 92 92 100 100 100 100 92 88 88 88 80 80 88 92 92 92 92 92 92 88 88 88 88 88 88 88 92 92 92 92 92 92 88 64 36 20 8 0 0 0 8 8 8 8 8 8 8 8 8 8 8 8 8 8 8 8 8 8 8 0 0 0 0 0 0 0 0 0 0 0 0 0 0 0 0 0 0 0 0 0 0 0 0 0 0 0 8 8 8 8 8 8 8 8 8 8 0 0
92 88 88 92 92 92 92 92 92 92 92 92 88 88 88 88 92 92 92 92 92 92 92 92 88 88 88 88 80 88 92 92 92 92 92 92 88 64 44 24 12 8 8 0 8 12 12 8 8 8 8 8 8 8 8 8 8 8 8 8 8 8 0 0 0 0 0 0 0 0 0 0 0 0 8 8 8 8 8 8 0 0 0 0 0 0 0 0 0 8 8 8 8 8 8 8 8 8 8 8 0 0 0
92 92 92 92 92 92 92 92 92 92 92 92 88 88 88 92 92 92 92 92 92 92 88 88 88 80 80 80 88 92 92 92 92 92 92 88 56 44 32 24 12 12 8 0 8 12 12 8 8 8 8 12 12 8 8 8 8 8 8 8 8 8 0 0 0 0 0 0 0 0 0 0 8 8 12 20 20 20 12 12 8 8 0 0 0 0 0 0 8 8 8 8 8 8 8 8 8 0 0 0 0 0 0
92 92 92 92 92 92 92 92 92 92 92 92 92 92 92 92 92 92 92 92 92 88 80 76 80 76 80 88 92 92 92 92 92 92 92 76 48 44 36 24 20 20 12 8 12 12 12 8 8 8 8 12 12 12 8 8 8 8 8 8 8 8 8 0 0 0 0 0 0 0 8 12 12 12 20 24 24 32 24 20 12 12 12 8 0 0 0 0 0 8 8 8 8 8 8 0 0 0 0 0 0 0 0
92 92 92 92 92 92 92 100 100 100 100 92 92 92 92 92 92 92 92 92 88 80 68 68 68 80 88 92 92 92 92 92 92 88 76 64 44 44 32 20 20 20 12 12 12 12 12 12 8 8 12 12 12 12 12 8 8 8 8 8 8 8 8 8 8 8 8 8 8 8 12 12 20 20 24 32 32 32 24 20 20 20 12 8 8 8 0 0 0 8 8 8 8 0 0 0 0 0 0 0 0 0 0
92 92 92 92 92 92 92 100 100 100 100 92 92 92 92 92 88 88 88 88 76 76 68 68 80 88 92 92 92 92 92 88 80 80 76 64 44 36 24 20 24 20 12 12 12 20 12 12 12 12 12 12 12 12 12 8 8 8 8 8 8 8 8 12 12 12 8 8 8 12 20 20 24 32 32 32 32 24 24 20 20 12 12 8 8 8 0 0 0 0 0 8 0 0 0 0 0 0 0 0 0 0 0
92 92 92 92 100 92 92 100 100 100 92 92 92 92 92 92 88 88 88 80 76 68 68 76 92 92 92 92 92 88 88 80 88 88 88 76 48 36 24 24 32 24 20 12 20 20 12 12 12 12 12 12 12 12 12 12 8 12 12 12 8 12 20 20 20 12 12 12 12 20 20 24 24 32 32 24 24 24 24 24 20 12 12 12 12 8 0 0 0 0 0 0 0 0 0 0 0 0 0 0 0 0 0
92 92 92 100 100 92 92 100 100 92 92 92 92 92 92 92 88 88 80 80 76 76 80 88 92 92 92 92 80 80 80 88 92 92 88 76 44 36 32 24 32 20 20 20 20 20 12 12 12 12 12 12 12 12 12 12 12 12 12 12 12 24 24 24 20 20 20 20 20 20 20 24 24 24 24 20 24 24 20 20 20 12 12 12 8 8 0 0 0 0 0 0 0 0 0 0 0 0 0 0 0 0 0
92 92 92 92 92 92 92 92 92 92 92 92 92 92 88 80 80 80 80 80 80 88 88 92 92 92 92 88 68 76 76 80 88 80 76 64 44 36 32 32 32 24 20 20 20 20 12 12 12 12 12 12 12 12 12 12 12 8 8 12 24 32 32 24 20 24 24 24 24 20 20 24 20 20 20 20 24 20 12 12 12 12 8 8 8 0 0 0 0 0 0 0 0 0 0 0 0 0 0 0 0 0 0
92 92 92 92 92 92 92 92 92 92 92 92 92 92 80 76 76 80 88 88 88 80 88 92 88 80 76 68 68 68 76 76 76 68 64 48 36 36 44 36 24 20 20 24 20 20 12 12 12 12 12 12 12 12 12 12 12 8 12 20 24 24 32 36 32 32 32 24 24 24 24 20 12 12 12 20 20 12 8 8 8 8 8 0 0 0 0 0 0 0 0 0 0 0 0 0 0 0 0 0 0 0 0
92 92 92 92 92 92 92 92 92 92 92 92 92 92 88 80 88 88 88 88 80 80 80 80 76 68 64 64 68 76 76 64 64 56 56 48 48 48 48 44 24 24 32 24 20 12 20 20 20 20 20 20 20 20 12 12 12 20 24 24 24 32 36 36 36 36 32 32 32 24 20 12 12 12 12 12 12 8 0 0 0 0 0 0 0 0 0 0 0 0 0 0 0 0 0 0 0 0 0 0 0 0 0
92 92 92 92 92 92 92 92 92 92 92 92 92 92 88 88 88 88 88 88 80 80 80 76 68 64 64 64 76 80 76 64 64 64 56 48 56 48 44 36 36 32 32 24 20 24 24 24 20 20 20 20 24 20 20 12 12 24 32 32 36 36 36 36 36 36 36 32 24 20 12 12 12 12 12 8 8 0 0 0 0 0 0 0 0 0 0 0 0 0 0 0 0 0 0 0 0 0 0 0 0 0 0
92 92 92 92 92 92 92 92 92 92 92 92 92 92 92 92 88 88 88 80 80 76 76 68 64 56 56 64 76 76 76 68 68 68 64 64 56 48 48 44 36 32 24 24 36 36 32 24 20 20 20 24 24 20 20 24 24 36 44 44 44 36 36 36 36 36 32 24 20 12 12 12 12 8 8 8 0 0 0 0 0 0 0 0 0 0 0 0 0 0 0 0 0 0 0 0 0 0 0 0 0 0 0
92 92 92 88 88 88 92 88 88 88 80 80 88 92 92 88 88 80 80 76 76 68 68 68 64 64 64 76 80 80 76 76 76 76 68 68 64 56 48 44 32 24 32 44 48 36 32 24 20 24 32 32 24 32 32 36 44 44 44 36 32 32 32 24 24 24 20 12 8 8 0 0 8 0 0 0 0 0 0 0 0 0 0 0 0 0 0 0 0 0 0 0 0 0 0 0 0 0 0 0 0 0 0
68 64 64 68 80 80 80 80 76 68 68 76 76 80 80 76 76 68 64 64 64 64 68 68 68 68 68 80 80 80 80 76 76 76 68 68 64 56 48 36 20 44 56 56 48 36 24 20 20 24 32 32 24 32 44 48 44 44 36 24 24 20 20 20 12 12 12 8 0 0 0 0 0 0 0 0 0 0 0 0 0 0 0 0 0 0 0 0 0 0 0 0 0 0 0 0 0 0 0 0 0 0 0
68 68 76 76 76 76 80 80 80 76 76 76 68 68 68 64 64 56 64 68 68 64 64 68 76 76 80 80 80 80 80 76 76 68 68 68 64 56 44 36 48 56 56 48 44 32 24 24 36 32 32 32 44 48 48 44 36 32 24 20 12 12 12 12 8 8 8 8 0 0 0 0 0 0 0 0 0 0 0 0 0 0 0 0 0 0 0 0 0 0 0 0 0 0 0 0 0 0 0 0 0 0 0
76 76 76 80 80 80 80 80 76 76 76 68 68 76 76 76 80 88 88 88 80 76 76 80 80 88 80 80 76 76 76 76 68 64 64 64 56 44 36 36 56 56 48 44 36 36 36 44 44 32 44 56 56 48 44 32 24 20 12 12 8 8 8 0 0 0 0 0 0 0 0 0 0 0 0 0 0 0 0 0 0 0 0 0 0 0 0 0 0 0 0 0 0 0 0 0 0 0 0 0 0 0 0
76 76 76 76 80 76 76 76 76 76 80 80 88 88 88 88 88 80 80 88 80 80 80 80 88 80 80 76 68 68 68 68 56 56 64 56 44 36 36 44 56 48 44 36 32 44 44 44 36 56 56 48 44 36 32 20 12 12 12 8 8 8 8 8 0 0 0 0 0 0 0 0 0 0 0 0 0 0 0 0 0 0 0 0 0 0 0 0 0 0 0 0 0 0 0 0 0 0 0 0 0 0 0
76 76 76 76 76 76 76 76 76 76 80 88 88 88 88 80 80 76 68 68 68 68 76 80 80 80 80 76 68 68 68 64 56 56 56 56 44 44 56 64 56 48 44 36 48 44 48 56 64 56 48 36 32 24 20 12 8 8 8 8 8 8 8 8 0 0 0 0 0 0 0 0 0 0 0 0 0 0 0 0 0 0 0 0 0 0 0 0 0 0 0 0 0 0 0 0 0 0 0 0 0 0 0
76 76 76 76 76 76 76 76 88 88 88 88 80 80 80 80 80 80 76 68 68 76 76 76 76 76 76 76 76 76 76 68 64 56 56 56 68 56 48 48 44 44 48 48 48 56 64 56 48 44 36 24 24 20 12 8 8 8 8 8 8 8 8 0 0 0 0 0 0 0 0 0 0 0 0 0 0 0 0 0 0 0 0 0 0 0 0 0 0 0 0 0 0 0 0 0 0 0 0 0 0 0 0
68 68 68 76 80 88 88 88 88 92 88 88 88 88 92 92 92 92 92 92 80 80 80 80 76 76 76 76 76 76 68 64 64 56 56 48 56 48 48 56 56 56 56 56 64 56 48 44 36 36 24 20 12 12 8 8 8 8 8 8 8 0 0 0 0 0 0 0 0 0 0 0 0 0 0 0 0 0 0 0 0 0 0 0 0 0 0 0 0 0 0 0 0 0 0 0 0 0 0 0 0 0 0
68 76 80 88 88 88 88 88 88 88 88 92 92 92 92 92 92 92 92 92 92 92 88 88 88 80 80 76 76 68 64 56 48 48 48 48 56 64 64 64 64 56 56 56 56 44 36 32 32 24 20 12 12 8 8 8 8 8 8 8 8 0 0 0 0 0 0 0 0 0 0 0 0 0 0 0 0 0 0 0 0 0 0 0 0 0 0 0 0 0 0 0 0 0 0 0 0 0 0 0 0 0 0
80 80 80 88 88 88 88 88 88 92 92 92 92 92 92 92 92 92 92 92 92 88 80 76 80 80 76 68 64 56 48 48 48 56 56 64 68 68 68 64 64 56 48 44 36 36 32 24 20 20 12 8 8 8 8 8 8 8 8 0 0 0 0 0 0 0 0 0 0 0 0 0 0 0 0 0 0 0 0 0 0 0 0 0 0 0 0 0 0 0 0 0 0 0 0 0 0 0 0 0 0 0 0
76 80 80 80 88 88 88 88 88 88 88 88 92 92 92 88 88 80 80 76 76 64 56 56 56 56 56 56 56 48 56 64 56 56 64 68 68 64 56 48 48 44 36 36 32 32 24 20 12 12 12 8 8 8 8 8 8 0 0 0 0 0 0 0 0 0 0 0 0 0 0 0 0 0 0 0 0 0 0 0 0 0 0 0 0 0 0 0 0 0 0 0 0 0 0 0 0 0 0 0 0 0 0
76 76 76 80 80 80 80 80 88 88 88 88 88 88 88 80 76 76 68 68 64 48 48 48 56 56 56 56 64 64 64 64 64 56 56 48 44 44 44 44 44 36 36 32 24 24 20 12 12 12 8 8 8 8 8 8 8 0 0 0 0 0 0 0 0 0 0 0 0 0 0 0 0 0 0 0 0 0 0 0 0 0 0 0 0 0 0 0 0 0 0 0 0 0 0 0 0 0 0 0 0 0 0
68 68 76 76 76 76 76 80 80 80 88 80 80 76 76 76 68 68 64 56 56 56 48 56 64 64 64 64 56 56 56 48 48 44 44 44 36 36 36 36 32 32 32 24 20 20 12 12 8 8 8 8 8 8 8 8 8 0 0 0 0 0 0 0 0 0 0 0 0 0 0 0 0 0 0 0 0 0 0 0 0 0 0 0 0 0 0 0 0 0 0 0 0 0 0 0 0 0 0 0 0 0 0
56 56 64 64 68 68 68 68 76 76 76 76 68 68 64 64 64 64 64 64 56 64 64 64 64 64 56 48 48 44 44 36 36 36 36 36 36 32 32 32 24 24 20 20 12 12 12 8 8 8 8 8 8 8 8 8 8 0 0 0 0 0 0 0 0 0 0 0 0 0 0 0 0 0 0 0 0 0 0 0 0 0 0 0 0 0 0 0 0 0 0 0 0 0 0 0 0 0 0 0 0 0 0
44 48 48 48 56 56 56 56 56 64 64 64 64 56 56 64 64 64 64 64 64 56 56 56 48 44 44 36 36 36 32 24 24 24 24 24 24 24 24 20 20 20 12 12 12 8 8 8 8 8 8 8 8 8 8 8 8 0 0 0 0 0 0 0 0 0 0 0 0 0 0 0 0 0 0 0 0 0 0 0 0 0 0 0 0 0 0 0 0 0 0 0 0 8 12 8 8 8 8 0 0 8 8
36 36 36 36 44 44 44 44 48 48 48 48 48 48 56 56 56 56 56 48 44 44 36 36 32 32 32 32 24 24 20 20 20 20 20 20 20 12 12 12 12 12 12 8 8 8 8 8 8 8 8 8 8 8 0 0 0 0 0 0 0 0 0 0 0 0 0 0 0 0 0 0 0 0 0 0 0 0 0 0 0 0 0 0 0 0 0 0 0 0 0 0 0 8 12 12 12 12 8 0 8 12 8
24 24 32 32 32 32 36 36 36 36 36 44 36 36 44 44 44 36 36 32 32 32 24 24 24 20 20 20 20 20 12 12 12 12 12 12 12 12 12 12 12 12 8 8 8 8 8 8 8 8 8 8 8 8 0 0 0 0 0 0 0 0 0 0 0 0 0 0 0 0 0 0 0 0 0 0 0 0 0 0 0 0 8 8 0 0 0 0 0 0 0 0 8 12 12 20 20 24 20 12 8 8 0
20 24 24 24 24 24 24 32 32 32 32 24 24 24 24 24 24 24 24 20 20 20 20 20 20 12 12 12 12 12 12 12 12 12 12 12 12 12 12 12 12 8 8 8 8 8 8 8 8 8 8 8 8 0 0 0 0 0 0 0 0 0 0 0 0 0 0 0 0 0 0 0 0 0 0 0 8 8 8 0 0 8 12 12 8 0 0 0 0 8 8 8 8 12 12 12 12 20 20 12 0 0 0
20 20 20 24 24 24 24 24 24 24 24 24 20 20 20 20 20 20 20 20 20 20 12 12 12 12 12 12 12 12 12 12 12 12 12 12 12 12 12 8 8 8 8 8 8 8 8 8 8 8 8 8 0 0 0 0 0 0 0 0 0 0 0 0 0 0 0 0 0 0 0 0 0 0 0 0 0 0 0 8 8 20 20 12 12 8 0 0 0 8 8 8 8 8 8 8 8 12 8 8 0 0 0
24 20 20 20 20 24 24 24 24 24 24 24 20 20 20 20 20 20 20 20 20 20 12 12 12 12 12 12 12 12 12 12 12 12 12 12 12 12 12 8 8 8 8 8 8 8 8 8 8 0 0 0 0 0 0 0 0 0 0 0 0 0 0 0 0 0 0 0 0 0 0 0 0 0 0 0 0 0 8 8 12 20 20 12 12 8 0 0 0 0 0 0 0 8 0 8 12 8 0 0 0 0 0
24 20 20 20 20 20 20 20 20 20 20 20 20 20 20 20 20 20 20 20 20 20 20 20 20 12 12 12 12 12 12 12 12 12 12 12 12 8 8 8 8 8 8 8 8 0 0 0 0 0 0 0 0 0 0 0 0 0 0 0 0 0 0 0 0 0 0 0 8 8 8 8 8 8 8 8 0 0 8 8 12 20 12 12 12 0 0 0 0 8 0 0 0 8 8 8 12 0 0 0 0 0 0
24 20 20 20 20 20 20 20 20 20 20 20 20 20 20 20 20 20 20 20 20 20 20 20 20 12 12 12 12 12 12 12 12 12 12 12 12 8 8 8 8 8 8 8 8 8 0 0 0 0 0 0 0 0 0 0 0 0 0 0 0 0 0 0 0 0 0 8 12 12 24 32 24 24 20 12 8 8 8 12 12 20 12 8 0 0 0 0 8 8 0 0 8 0 8 12 12 0 0 0 0 0 0